www.pogodaiklimat.ru

Погода и климат >> Архив погоды >> Марокко >> Агадир


ПОГОДА в Агадире

  • Прогноз погоды в Агадире
  • Монитор погоды в Агадире

АРХИВ ПОГОДЫ в Агадире

Время (UTC), дата Ветер
(напр.,м/с)
 
Видим.   Явления Облачность Т
(С)
Тd
(С)
f
(%)
Тe
(С)
Тes
(С)
Комфортность P
(гПа)
Po
(гПа)
Тmin
(С)
Tmax
(С)
R
(мм)
R24
(мм)
S
(см)
18 11.09 Ю 4-6
{31}
6000 м ясно +22.7 +14.0 58 +26 +26 жарко 1011.4 1009.3 +26.0
06 12.09 штиль 0
{2}
5000 м 4/3 300 м
[St Ci sp]
+16.1 +13.0 82 +16 +16 1011.3 1009.2 +16.1
09 12.09 ЮВ 1-2
{4}
5000 м 1/1 300 м
[St]
+22.0 +15.1 65 +26 +32 душно 1013.5 1011.4
12 12.09 СЗ 5-8
{9}
6000 м ясно +23.0 +16.3 66 +28 +36 душно 1013.2 1011.1
15 12.09 З 4-8
{10}
6000 м ясно +24.5 +15.1 56 +27 +35 жарко 1011.7 1009.6
18 12.09 З 2-4
{10}
6000 м ясно +22.6 +15.7 65 +27 +27 душно 1011.7 1009.6 +24.8
06 13.09 З 1-3
{3}
5000 м 4/4 300 м
[St]
+18.6 +16.4 87 +21 +21 комфорт 1012.6 1010.5 +17.6
09 13.09 З 2-3
{5}
5000 м 4/4 300 м
[St]
+21.6 +17.2 76 +26 +29 душно 1014.0 1011.9
12 13.09 З 4-5
{6}
6000 м ясно +24.2 +15.9 60 +27 +38 жарко 1014.6 1012.5
15 13.09 З 4-7
{7}
8000 м ясно +24.8 +16.2 59 +28 +36 жарко 1013.3 1011.2
18 13.09 ЮЗ 2-4
{9}
8000 м ясно +21.6 +16.6 73 +25 +26 комфорт 1013.7 1011.6 +25.0
06 14.09 СЗ 2-3
{3}
6000 м ясно +18.9 +16.5 86 +21 +21 комфорт 1014.4 1012.3 +17.7
09 14.09 ЮЗ 2-3
{3}
6000 м 6/6 300 м
[St]
+20.8 +17.2 80 +25 +27 комфорт 1016.1 1014.0
12 14.09 З 3-5
{5}
6000 м 3/3 300 м
[St]
+24.2 +16.7 63 +28 +37 душно 1015.6 1013.5
15 14.09 З 4-7
{8}
6000 м 4/4 300 м
[St]
+22.0 +16.7 72 +26 +31 душно 1014.4 1012.3
18 14.09 З 3-6
{8}
6000 м 6/4 300 м
[St Ci sp]
+21.4 +16.8 75 +25 +25 комфорт 1015.1 1013.0 +24.4
06 15.09 З 1-2
{4}
2000 м дымка 10/10 150 м
[St]
+18.6 +16.8 89 +21 +21 комфорт 1016.9 1014.8 +16.9
09 15.09 ЮЗ 1-3
{3}
3000 м дымка 10/10 270 м
[St]
+19.8 +16.6 82 +23 +23 комфорт 1018.2 1016.1
12 15.09 З 3-5
{6}
6000 м 3/3 300 м
[St]
+22.6 +16.4 68 +27 +37 душно 1017.7 1015.6
15 15.09 З 5-9
{9}
6000 м 4/4 300 м
[St]
+20.9 +16.3 75 +24 +28 комфорт 1016.0 1013.9
18 15.09 З 2-3
{9}
5000 м 4/4 300 м
[St]
+20.7 +16.3 76 +25 +25 комфорт 1015.1 1013.0 +22.7
06 16.09 З 1-2
{4}
600 м туман 10/10 150 м
[St]
+16.9 +15.4 91 +18 +18 1015.5 1013.4 +16.0
09 16.09 З 2-4
{5}
4000 м дымка {туман} 10/6 300 м
[St Ac trans]
+19.0 +17.5 91 +21 +22 комфорт 1016.8 1014.7
12 16.09 СЗ 4-6
{7}
6000 м 8/4 300 м
[St Ac trans]
+20.7 +16.7 78 +24 +28 комфорт 1015.8 1013.7
15 16.09 З 4-6
{10}
5000 м 9/9 180 м
[St]
+19.4 +16.4 83 +21 +22 комфорт 1015.6 1013.5
18 16.09 В 2-5
{6}
5000 м 3/3 300 м
[St Ac trans]
+22.4 +16.7 70 +27 +27 душно 1014.7 1012.6 +22.5
06 17.09 штиль 0 7000 м 6/0
[Ac trans Ci sp]
+18.4 +16.6 89 +19 +19 1013.2 1011.1 +16.0
09 17.09 З 1-3
{4}
7000 м 5/0
[Ac trans Ci sp]
+21.1 +17.9 82 +25 +30 комфорт 1014.9 1012.8
12 17.09 З 3-4
{6}
7000 м 5/3 300 м
[St Ac trans Ci sp]
+21.4 +17.6 79 +26 +34 душно 1015.0 1012.9
15 17.09 З 2-6
{6}
7000 м 4/1 600 м
[Sc Ci sp]
+25.1 +17.3 62 +29 +38 душно 1013.1 1011.0
18 17.09 ЮЗ 2-3
{6}
7000 м 4/0
[Ci sp]
+25.3 +17.0 60 +29 +29 душно 1012.5 1010.4 +26.0
06 18.09 штиль 0-1
{5}
5000 м 4/3 300 м
[St Ci sp]
+17.1 +15.0 87 +17 +17 1014.4 1012.3 +17.1
09 18.09 З 2-3
{3}
3000 м дымка 9/9 240 м
[St]
+19.7 +16.9 84 +23 +23 комфорт 1015.4 1013.3
12 18.09 З 5-8
{8}
5000 м 8/4 300 м
[St Ci sp]
+21.0 +16.6 76 +25 +29 комфорт 1015.3 1013.2
15 18.09 З 4-6
{8}
5000 м 5/3 300 м
[St Ci sp]
+21.5 +17.1 76 +25 +30 комфорт 1013.2 1011.1

 

Местоположение метеостанции Агадир (Марокко): широта 30.38 долгота -9.57 высота над уровнем моря 27 м.

В архиве по умолчанию представлена погода в Агадире за последнюю неделю. Архивные данные за месяц целиком и за предыдущие месяцы, начиная с января 2011 года, Вы можете получить, выбрав интересующий диапазон дат из раскрывающегося списка и нажав кнопку "Ввод!".


*Определитесь, кто Вы:
робот инопланетянин человек

Внимание! Время в таблицах - всемирное. Для получения местного времени необходимо прибавить поправку, которая равна 0 ч.

Смотрите также архив погоды в соседних городах и на ближайших метеорологических станциях:

Погода в Агадире (Марокко) (18 км)
Погода в Таруданте (Марокко) (73 км)
Погода в Тизните (Марокко) (79 км)
Погода в Аэропорту Эс-Сувейра-Могадор (Марокко) (114 км)
Погода в Сиди-Ифни (Марокко) (127 км)
Погода в Эс-Сувейре (Марокко) (128 км)
Погода в Гулимине (Марокко) (158 км)
Погода в Марракеше (Марокко) (201 км)
Погода в Сафи (Марокко) (214 км)
Погода в Варзазате (Марокко) (263 км)

Пояснения к столбцам:

Ветер - указаны скорость ветра в м/с - средняя за 10 мин, порывы в срок и между сроками (в фигурных скобках) и направление, откуда дует ветер: С - северный, СВ - северо-восточный, В - восточный, ЮВ - юго-восточный, Ю - южный, ЮЗ - юго-западный, З - западный, СЗ - северо-западный.
Видимость - горизонтальная дальность видимости в метрах или километрах. При видимости от 1 до 10 км при отсутствии осадков обычно наблюдается дымка, при ухудшении видимости до 1 км и менее - туман. В сухую погоду видимость может ухудшаться дымом, пылью или мглою.
Явления - указаны атмосферные явления, наблюдавшиеся в срок или в последний час перед сроком; фигурными скобками обозначены явления, наблюдавшиеся между сроками (за 1-3 часа до срока); квадратными скобками обозначены град или гололедные отложения с указанием их диаметра в мм.
Облачность - указаны через наклонную черту общая и нижняя облачность в баллах и высота нижней границы облаков в метрах; квадратными скобками обозначены формы облаков: Ci - перистые, Cs - перисто-слоистые, Cc - перисто-кучевые, Ac - высококучевые, As - высокослоистые, Sc - слоисто-кучевые, Ns - слоисто-дождевые, Cu - кучевые, Cb - кучево-дождевые. Подробнее классификацию облаков см. в Атласе облаков (PDF).
T - Температура воздуха - температура, измеренная на высоте 2 м над землей.
Td - Температура точки росы - температура, при понижении до которой содержащийся в воздухе водяной пар достигнет насыщения.
f - Относительная влажность воздуха - влажноcть воздуха, измеренная на высоте 2 м над землей.
Te - Эффективная температура - температура, которую ощущает одетый по сезону человек в тени. Характеристика душности погоды. При расчете учитывается влияние влажности воздуха и скорости ветра на теплоощущения человека.
Tes - Эффективная температура на солнце - температура, которую ощущает человек, с поправкой на солнечный нагрев. Характеристика знойности погоды. Зависит от высоты солнца над горизонтом, облачности и скорости ветра. Ночью, в пасмурную погоду, а также при ветре 12 м/с и более поправка равна нулю.
P - Атмосферное давление - приведенное к уровню моря атмосферное давление.
Po - Атмосферное давление - измеренное на уровне метеостанции атмосферное давление.
Tmin - Минимальная температура - минимум температуры воздуха на высоте 2 м над землей.
Tmax - Максимальная температура - максимум температуры воздуха на высоте 2 м над землей.
R - Количество осадков - Количество выпавших осадков за период времени, мм. При наведении курсора мыши на число - период времени, за который выпало указанное количество осадков.
R24 - Количество осадков - Количество выпавших осадков за 24 часа, мм.
S - Снежный покров - Высота снежного покрова, см. При наведении курсора мыши на число - состояние снежного покрова и степень покрытия местности в баллах.